SCP
-0 -0 0 -0 0 0 0 0 0 0 0 0 0 0 -0 0 0 0 0 0 0 0 0 0 0 0 -0 -0 -0 -0 -1 -1 -1 -1 -0 -0 -0 -0 -0 -0 -0 -0 -0 -0 -0 -0 -0 -0 -0
-0 -0 -0 -0 -0 -0 0 0 0 0 0 0 0 0 0 -0 0 0 0 0 0 0 0 0 0 0 -0 -0 -0 -0 -1 -1 -1 -1 -1 -0 -0 -0 -0 -0 -0 -0 -0 -0 -0 -0 -0 -0 -0
-0 -0 -0 0 -0 0 0 0 0 0 0 0 0 0 0 0 0 0 0 0 0 0 0 0 0 0 -0 -0 -0 -0 -1 -1 -1 -1 -1 -1 -0 -0 -0 -0 -0 -0 -0 -0 -0 -0 -0 -0 -0
-0 0 0 0 0 0 0 0 0 0 0 0 0 0 0 0 0 0 0 0 0 0 0 0 1 1 0 -0 -0 -0 -0 -1 -1 -0 -0 -0 -0 -0 -0 -0 -0 -0 -0 -0 -0 -0 -0 -0 0
-0 0 -0 0 0 0 0 0 0 0 0 0 0 -0 0 1 0 0 0 0 0 0 0 0 1 1 0 0 0 -0 -0 -0 -0 -0 0 -0 -0 -0 -0 0 -0 -0 -0 -0 -0 -0 0 0 0
0 0 0 -0 0 0 0 0 0 0 0 0 0 0 0 2 1 1 0 0 0 0 0 1 1 1 1 0 0 0 0 -0 -0 0 0 0 -0 -0 -0 0 0 -0 -0 -0 -0 0 0 0 0
0 0 -0 0 0 0 0 0 0 0 0 0 0 0 0 1 1 1 0 0 0 0 0 1 0 0 1 1 0 0 0 0 0 0 0 0 0 0 0 0 0 0 0 0 0 0 0 0 0
0 0 -0 -0 0 0 0 0 0 0 0 0 0 0 0 3 2 1 0 0 0 1 1 1 0 0 0 1 0 0 0 0 0 1 1 0 0 0 0 0 0 0 0 0 0 0 0 0 0
0 0 0 -0 0 0 0 0 0 0 0 0 0 0 0 1 1 1 0 0 0 1 1 1 1 1 1 1 1 0 0 0 0 1 0 0 0 0 0 0 0 0 0 0 0 0 0 0 0
0 0 0 0 0 0 0 0 0 0 0 0 0 0 0 1 1 1 0 0 0 0 0 1 1 1 1 1 1 1 0 0 0 0 0 0 0 0 0 0 0 0 0 0 0 0 0 0 0
0 0 0 0 0 0 0 0 0 0 0 0 0 0 0 0 0 0 0 0 0 0 0 0 1 1 1 1 1 1 1 1 1 1 1 1 1 1 1 1 0 0 0 0 0 0 0 0 0
0 0 0 0 0 0 0 0 0 0 0 0 0 0 0 0 0 0 0 0 0 0 0 0 0 1 1 1 1 1 1 1 1 1 1 1 2 2 1 1 0 0 0 0 0 0 0 0 0
0 0 0 0 0 0 0 0 0 0 0 0 0 0 0 0 0 0 0 0 0 0 0 0 0 1 1 1 2 2 3 3 2 2 1 1 1 2 1 1 1 1 0 0 0 0 0 0 0
0 0 0 0 0 0 0 0 0 0 0 0 0 0 0 0 0 0 -0 -0 0 0 0 1 0 1 1 2 2 3 3 3 2 2 2 1 1 2 1 2 1 1 0 0 0 0 0 0 0
0 0 0 0 0 0 0 0 0 0 0 0 0 0 0 0 0 0 -0 -0 0 0 0 1 1 1 1 2 2 2 2 2 2 2 2 2 2 3 2 1 1 0 0 0 0 0 0 0 0
0 0 0 0 0 0 0 0 0 0 0 0 0 0 0 0 0 0 0 0 -0 0 0 0 1 1 1 1 2 2 2 2 2 3 2 3 2 3 2 1 1 0 0 0 0 0 0 0 0
0 0 0 0 0 0 0 0 0 0 0 0 0 0 0 0 0 0 0 0 0 0 0 0 1 1 1 0 1 2 2 2 2 4 3 3 2 3 2 1 1 0 0 0 0 0 0 0 0
0 0 0 0 0 0 0 0 0 0 -0 -0 -0 0 0 0 0 0 0 0 0 0 0 1 1 1 1 1 1 2 2 2 2 2 3 2 2 2 2 2 0 0 0 0 0 0 0 0 0
0 0 0 0 0 0 0 0 0 0 0 -0 -0 0 0 0 -0 0 0 0 0 0 0 1 1 2 1 1 2 3 2 1 1 0 0 1 1 0 0 0 0 0 0 0 0 0 0 0 0
0 0 0 0 0 0 0 0 0 -0 -0 -0 0 0 0 0 0 0 0 0 0 0 0 1 2 1 2 1 1 0 1 0 0 0 0 0 0 0 0 0 0 0 0 0 0 0 0 0 0
0 0 0 0 0 0 0 -0 0 0 0 0 0 0 0 0 0 0 0 0 0 0 1 2 2 2 1 1 0 0 0 0 0 0 0 0 0 0 0 0 0 0 0 0 0 0 0 0 0
0 0 0 0 0 0 0 -0 0 -0 0 0 0 0 0 0 0 0 0 0 0 1 2 2 2 1 1 0 0 0 0 0 0 0 0 0 0 0 0 0 0 0 0 0 0 0 0 0 0
0 0 0 0 0 0 0 0 0 0 0 0 0 0 0 0 0 0 0 0 0 0 0 2 2 1 0 0 0 0 0 0 0 0 0 0 0 0 0 0 0 0 0 0 0 0 0 0 0
0 0 0 0 0 0 0 0 0 0 0 0 0 0 0 0 0 0 0 0 0 0 0 0 0 0 0 0 0 0 0 0 0 0 0 0 0 0 0 0 0 0 0 0 0 0 0 0 0
0 0 0 0 0 0 0 0 0 0 0 0 0 0 0 0 0 0 0 0 0 0 0 0 0 0 0 0 0 0 0 0 0 0 0 0 0 0 0 0 0 0 0 0 0 0 0 0 0
0 0 0 0 0 0 0 0 0 0 0 0 0 0 0 0 0 0 0 0 0 0 0 0 0 0 0 0 0 0 0 0 0 0 0 0 0 0 0 0 0 0 0 0 0 0 0 0 0
0 0 -0 0 0 0 0 0 0 0 0 0 0 0 0 0 0 0 0 0 0 0 0 0 0 0 0 0 0 0 0 0 0 0 0 0 0 0 0 0 0 0 0 0 0 0 0 0 0
0 0 0 0 0 0 0 0 0 0 0 0 0 0 0 0 0 0 0 0 0 0 0 0 0 0 0 0 0 0 0 0 0 0 0 0 0 0 0 0 0 0 0 0 0 0 0 0 0
0 0 0 0 0 0 0 0 0 0 0 0 0 0 0 0 0 0 0 0 0 0 0 0 0 0 0 0 0 0 0 0 0 0 0 0 0 0 0 0 0 0 0 0 0 0 0 0 0
0 0 0 0 0 0 0 0 0 0 0 0 0 0 0 0 0 0 0 0 0 0 0 0 0 0 0 0 0 0 0 0 0 0 0 0 0 0 0 0 0 0 0 0 0 0 0 0 0
Wind_Speed_500mb
10 10 10 16 14 16 2 15 9 15 13 15 10 13 24 23 24 9 4 14 33 41 56 59 55 50 45 42 47 49 47 42 39 38 36 32 27 26 24 24 23 23 22 21 20 19 20 20 21
3 9 11 21 16 23 17 11 3 13 15 14 15 16 20 15 12 8 3 11 34 45 59 62 57 51 47 45 44 47 45 41 40 39 37 33 30 28 26 24 23 22 21 20 20 20 19 19 20
4 9 14 10 21 14 14 5 7 9 8 11 9 4 16 8 5 3 2 16 34 41 53 58 58 54 50 47 44 44 44 43 42 41 39 35 33 30 28 26 24 22 20 19 19 20 19 18 18
5 11 17 18 23 14 10 7 6 6 4 5 15 18 3 1 5 3 5 21 37 40 49 57 61 57 53 50 46 43 43 44 45 43 40 37 34 31 28 27 25 23 20 18 17 16 15 13 14
11 21 21 26 16 3 2 9 5 8 9 16 17 14 10 4 5 5 10 27 36 41 47 55 64 59 54 52 49 45 45 45 44 42 39 38 35 32 30 28 27 24 22 19 16 14 12 11 9
24 15 23 28 11 8 4 7 4 7 9 13 13 23 7 6 5 2 15 27 35 39 42 51 65 60 56 54 50 46 45 45 43 41 39 37 34 31 29 27 25 23 19 17 15 14 13 11 9
28 23 31 37 27 7 10 8 11 4 12 8 15 18 10 2 3 4 18 31 35 38 41 44 68 62 58 55 52 48 47 46 44 42 39 36 33 31 29 27 25 21 21 19 18 16 15 14 13
24 19 37 32 26 8 18 10 5 14 15 11 15 9 19 9 4 6 18 30 37 39 40 42 68 66 62 59 54 51 49 48 46 43 40 37 35 32 29 27 26 25 23 22 20 18 16 15 13
16 14 24 33 21 4 13 20 11 12 19 16 19 22 17 8 6 10 21 30 35 39 41 44 56 66 66 63 60 55 52 51 48 46 44 40 37 37 34 32 30 28 27 23 22 20 17 15 14
23 22 31 13 19 17 13 22 21 23 26 27 27 26 15 15 16 20 26 33 40 45 47 46 49 52 57 49 60 61 58 56 54 54 52 46 35 34 28 37 36 32 29 26 23 20 16 7 6
26 33 32 25 19 28 35 33 24 28 30 33 16 25 33 30 28 32 34 38 44 46 47 50 53 53 52 49 48 54 51 52 54 51 54 45 38 34 38 46 40 38 34 29 27 24 16 10 18
28 40 40 42 35 29 32 34 36 41 48 43 39 35 37 39 42 41 41 40 44 51 51 49 54 57 62 52 51 51 52 53 53 54 55 43 42 39 36 31 31 33 36 27 27 21 26 32 30
32 40 47 42 37 42 43 48 46 55 50 49 49 42 38 40 41 41 42 44 44 52 55 55 54 57 57 60 57 57 68 70 66 65 56 48 42 39 34 37 30 28 26 31 26 26 29 29 29
32 38 42 47 53 50 46 49 51 58 46 46 32 32 32 34 39 44 50 52 46 50 57 61 57 57 58 60 63 61 73 69 62 64 63 50 41 43 38 41 35 30 31 26 24 24 21 19 25
32 35 40 42 50 48 46 43 49 63 41 40 33 37 38 33 38 45 47 51 49 46 53 62 63 59 61 64 56 54 49 53 52 52 59 53 46 49 41 38 36 35 31 36 33 36 29 27 22
34 37 35 34 18 25 13 42 39 40 15 27 39 36 43 51 44 41 40 45 48 50 53 59 65 66 65 63 56 51 48 53 53 52 54 59 57 53 54 41 38 35 37 38 36 33 31 26 25
31 37 43 46 28 28 28 50 35 39 24 39 50 60 57 62 51 43 43 45 49 55 53 58 68 69 65 59 54 52 49 52 50 61 63 62 60 57 51 46 43 50 36 34 34 31 27 28 27
32 43 44 48 28 26 34 50 47 60 68 72 68 65 58 56 50 44 41 39 45 53 52 56 65 70 65 55 56 55 58 58 66 70 69 54 63 64 55 46 50 44 38 34 33 33 28 26 28
42 47 53 50 47 48 53 60 53 59 65 63 65 60 57 54 47 39 24 29 33 46 51 55 61 71 65 66 75 74 76 71 65 69 68 65 65 67 56 56 58 42 43 37 36 34 32 27 28
42 47 53 53 41 39 49 58 52 58 66 74 66 57 55 47 41 25 15 18 29 40 45 52 58 70 72 74 78 80 73 65 77 69 63 61 63 62 57 64 57 50 37 41 40 35 29 30 32
37 44 45 50 44 43 46 60 41 18 11 20 22 26 19 25 18 14 13 10 18 33 40 50 64 71 65 72 72 78 84 79 72 67 64 66 68 65 65 64 42 30 31 35 37 38 36 35 37
45 34 33 32 30 32 21 28 32 46 45 22 18 7 12 9 7 11 10 6 11 16 35 47 56 60 60 66 74 80 76 69 70 68 70 69 66 69 68 66 55 51 53 42 34 40 46 36 38
45 35 32 34 37 41 34 24 11 7 22 21 12 12 12 10 10 9 5 5 9 31 40 47 48 51 59 60 64 61 70 68 67 65 66 64 64 60 56 55 55 51 45 52 46 35 40 33 24
30 15 28 31 26 25 36 32 19 12 18 20 15 10 9 11 9 7 6 7 13 15 28 38 43 47 51 59 59 58 63 64 65 65 64 59 53 48 42 35 23 11 20 19 36 34 32 26 28
23 24 11 18 20 19 8 15 29 14 15 14 9 7 10 11 10 10 9 7 6 9 15 25 33 39 46 52 54 53 56 57 54 54 56 48 26 11 9 6 13 15 28 30 43 50 57 52 39
31 35 15 17 22 24 8 14 5 12 15 11 4 15 14 16 17 15 15 14 13 13 14 18 23 31 37 41 44 45 40 41 38 30 27 24 23 16 9 10 35 37 41 38 41 49 56 59 55
25 31 37 37 34 30 27 40 30 20 11 11 14 17 22 23 21 20 19 18 17 18 18 18 21 23 27 30 30 30 31 30 33 37 31 31 25 19 36 39 33 24 22 19 20 25 29 36 38
35 7 23 16 14 25 30 36 26 14 12 9 16 22 26 26 25 22 21 19 19 21 24 25 25 27 35 38 42 49 54 50 50 47 44 40 38 29 30 28 26 22 18 26 29 32 35 35 38
22 31 24 20 27 26 35 34 15 17 13 14 15 19 27 32 29 26 24 22 24 26 28 29 28 29 33 41 47 47 45 45 40 36 32 30 32 32 32 29 22 20 22 23 24 24 23 26 30
35 36 39 23 36 25 35 44 27 35 38 26 24 27 32 36 36 35 32 31 32 29 26 26 27 29 28 32 38 39 39 39 39 38 38 38 37 32 28 25 24 21 21 22 23 21 22 25 27
Wind_Direction_500mb
308 325 315 274 250 227 264 94 4 24 3 3 318 310 338 322 321 25 124 182 163 170 180 175 175 171 167 166 168 170 179 182 182 181 181 181 179 177 170 161 155 152 147 139 134 128 123 119 117
283 268 277 280 254 257 95 62 51 4 353 323 284 270 266 298 7 81 115 179 170 174 176 179 178 176 174 172 171 175 185 188 187 185 186 187 187 184 174 167 163 161 155 149 143 137 136 135 130
111 246 265 233 259 329 21 68 350 344 360 333 311 256 305 12 43 51 202 166 168 176 177 182 182 182 179 178 176 179 187 189 188 188 188 191 192 187 181 174 172 168 163 161 152 149 150 143 137
255 225 241 252 274 77 328 54 20 313 115 335 339 282 223 268 343 340 183 167 168 176 177 191 186 186 185 183 182 183 185 188 185 188 190 192 192 191 186 181 178 175 173 170 164 159 153 150 146
262 261 264 236 256 54 311 19 341 332 11 312 344 317 301 97 350 304 194 170 177 176 179 195 188 189 190 189 188 187 187 188 187 189 192 193 193 194 192 188 184 184 179 177 175 170 169 168 163
257 259 263 260 151 137 163 142 257 278 320 307 304 331 300 57 22 207 172 176 177 179 182 201 190 192 194 194 194 193 191 191 193 192 193 196 197 196 195 192 191 189 181 184 187 191 192 197 203
255 280 273 287 291 197 169 187 218 316 288 333 321 290 309 110 11 165 171 171 178 181 185 201 191 193 197 198 198 198 197 196 197 196 197 198 199 200 199 198 198 199 201 203 207 214 217 216 219
279 283 271 271 271 255 142 211 229 264 308 300 279 285 346 44 33 166 177 178 179 185 188 191 191 194 197 198 199 201 202 201 201 201 201 202 201 204 205 206 209 211 215 219 222 225 230 233 232
262 257 257 268 271 314 145 223 210 266 274 267 265 282 306 283 243 200 193 191 191 190 188 190 191 195 197 198 199 202 205 205 205 205 205 204 206 204 206 208 217 222 225 230 234 232 231 235 245
238 252 263 312 330 287 227 243 279 289 261 234 257 273 265 260 246 229 215 209 204 197 192 189 191 193 194 192 202 202 204 206 206 207 206 204 195 201 204 218 217 223 230 233 237 236 234 240 266
248 248 284 296 286 287 286 283 265 278 271 274 270 278 280 273 248 248 231 222 216 210 200 194 190 193 192 192 202 197 202 202 205 207 208 194 196 203 200 221 223 220 224 227 226 227 229 218 200
257 270 264 279 280 278 271 285 280 271 272 279 281 280 272 270 267 251 241 232 220 214 208 202 195 194 192 192 201 196 204 202 203 208 207 192 199 205 202 219 208 215 219 209 205 207 204 218 208
256 263 277 279 276 268 272 272 277 273 272 276 277 275 269 264 262 253 242 238 230 217 212 207 204 197 195 186 199 193 201 202 206 208 206 188 209 209 206 218 208 205 209 212 205 208 219 219 219
279 296 281 280 277 276 272 273 272 266 267 271 268 261 264 265 264 257 248 242 232 225 213 209 208 203 196 194 213 207 211 211 211 214 209 196 209 216 207 211 204 208 207 208 208 213 207 211 210
278 277 276 270 268 262 263 268 258 266 262 258 251 265 266 266 271 261 251 243 232 228 215 211 209 206 202 199 207 201 207 202 209 219 209 211 206 222 203 207 203 204 202 204 204 212 203 200 202
265 263 274 272 250 272 233 269 282 295 246 242 256 261 286 278 264 265 251 244 239 228 220 212 213 211 210 204 205 201 207 208 210 208 222 211 206 219 216 207 203 202 208 213 214 213 210 204 190
240 262 276 285 272 238 249 269 281 292 258 260 261 269 278 281 271 256 253 249 241 230 221 212 211 212 214 207 206 206 206 212 205 208 222 220 211 212 215 204 207 216 213 206 212 207 198 196 188
273 289 297 298 300 260 263 272 283 286 287 283 279 277 276 272 270 258 256 254 247 227 220 211 216 214 213 208 206 209 206 211 212 216 220 219 211 215 218 208 208 215 207 210 204 206 197 196 190
272 280 280 282 288 283 282 283 283 284 279 277 275 274 273 269 264 253 254 257 233 219 217 210 212 221 210 210 209 207 211 217 216 221 223 217 213 222 218 213 221 201 209 211 217 211 198 190 193
267 271 270 281 280 273 279 281 288 284 270 265 270 274 265 259 250 234 259 252 224 217 215 210 211 222 222 218 218 217 214 216 229 232 232 231 229 230 226 223 228 216 203 201 212 204 187 192 186
255 264 273 280 300 294 286 281 278 269 342 283 272 276 284 260 224 216 276 276 223 221 217 217 223 228 234 223 218 217 223 227 235 236 231 226 225 225 222 218 213 217 187 201 209 198 181 193 195
263 257 269 280 289 278 312 291 288 287 288 219 232 213 231 194 207 237 260 254 224 225 220 235 237 232 233 231 229 237 238 234 230 223 219 212 214 220 220 223 214 208 197 192 174 187 187 186 197
251 267 273 275 273 285 270 261 292 177 211 208 165 190 189 187 202 221 237 228 232 221 209 224 236 236 234 239 241 244 236 234 228 221 212 209 214 216 216 214 216 217 209 205 198 189 183 183 176
254 254 264 255 260 262 249 232 285 304 35 92 111 172 226 234 225 204 191 209 244 229 214 217 228 228 230 234 242 238 243 235 228 219 213 208 209 211 212 214 220 250 229 208 177 173 184 184 176
216 202 235 223 218 240 309 253 244 145 153 120 127 195 222 228 221 204 199 193 213 210 197 205 221 229 226 228 230 237 237 232 224 215 209 201 193 183 187 210 223 261 250 236 244 224 211 200 194
204 208 226 239 247 274 360 250 268 61 110 137 241 253 216 227 217 206 198 190 180 174 177 192 203 212 219 222 226 225 223 219 212 208 183 147 153 166 248 187 225 200 213 217 214 215 217 217 223
196 210 241 273 285 285 267 272 265 157 182 184 187 207 220 223 215 206 201 186 175 168 168 170 180 191 198 197 200 202 201 187 173 167 171 183 198 179 212 213 213 199 185 213 218 223 222 218 223
247 229 217 220 253 244 260 267 271 226 190 193 234 222 216 208 205 201 202 194 181 169 158 153 152 159 164 166 164 170 169 174 176 180 182 182 191 178 191 200 192 192 200 216 216 224 223 227 235
197 235 241 288 233 254 270 267 303 51 18 330 243 240 235 210 210 203 200 190 179 162 158 155 154 156 165 170 172 174 177 179 182 181 179 177 174 173 180 188 188 188 185 206 206 213 219 224 226
239 247 222 220 236 239 250 266 277 295 309 307 280 265 237 228 212 205 197 191 184 178 176 174 170 170 174 170 181 182 184 182 180 180 178 177 180 181 185 187 180 179 189 197 208 217 221 221 224
Wind_Speed_850mb
10 10 10 16 14 16 2 15 9 15 13 15 10 13 24 23 24 9 4 14 33 41 56 59 55 50 45 42 47 49 47 42 39 38 36 32 27 26 24 24 23 23 22 21 20 19 20 20 21
3 9 11 21 16 23 17 11 3 13 15 14 15 16 20 15 12 8 3 11 34 45 59 62 57 51 47 45 44 47 45 41 40 39 37 33 30 28 26 24 23 22 21 20 20 20 19 19 20
4 9 14 10 21 14 14 5 7 9 8 11 9 4 16 8 5 3 2 16 34 41 53 58 58 54 50 47 44 44 44 43 42 41 39 35 33 30 28 26 24 22 20 19 19 20 19 18 18
5 11 17 18 23 14 10 7 6 6 4 5 15 18 3 1 5 3 5 21 37 40 49 57 61 57 53 50 46 43 43 44 45 43 40 37 34 31 28 27 25 23 20 18 17 16 15 13 14
11 21 21 26 16 3 2 9 5 8 9 16 17 14 10 4 5 5 10 27 36 41 47 55 64 59 54 52 49 45 45 45 44 42 39 38 35 32 30 28 27 24 22 19 16 14 12 11 9
24 15 23 28 11 8 4 7 4 7 9 13 13 23 7 6 5 2 15 27 35 39 42 51 65 60 56 54 50 46 45 45 43 41 39 37 34 31 29 27 25 23 19 17 15 14 13 11 9
28 23 31 37 27 7 10 8 11 4 12 8 15 18 10 2 3 4 18 31 35 38 41 44 68 62 58 55 52 48 47 46 44 42 39 36 33 31 29 27 25 21 21 19 18 16 15 14 13
24 19 37 32 26 8 18 10 5 14 15 11 15 9 19 9 4 6 18 30 37 39 40 42 68 66 62 59 54 51 49 48 46 43 40 37 35 32 29 27 26 25 23 22 20 18 16 15 13
16 14 24 33 21 4 13 20 11 12 19 16 19 22 17 8 6 10 21 30 35 39 41 44 56 66 66 63 60 55 52 51 48 46 44 40 37 37 34 32 30 28 27 23 22 20 17 15 14
23 22 31 13 19 17 13 22 21 23 26 27 27 26 15 15 16 20 26 33 40 45 47 46 49 52 57 49 60 61 58 56 54 54 52 46 35 34 28 37 36 32 29 26 23 20 16 7 6
26 33 32 25 19 28 35 33 24 28 30 33 16 25 33 30 28 32 34 38 44 46 47 50 53 53 52 49 48 54 51 52 54 51 54 45 38 34 38 46 40 38 34 29 27 24 16 10 18
28 40 40 42 35 29 32 34 36 41 48 43 39 35 37 39 42 41 41 40 44 51 51 49 54 57 62 52 51 51 52 53 53 54 55 43 42 39 36 31 31 33 36 27 27 21 26 32 30
32 40 47 42 37 42 43 48 46 55 50 49 49 42 38 40 41 41 42 44 44 52 55 55 54 57 57 60 57 57 68 70 66 65 56 48 42 39 34 37 30 28 26 31 26 26 29 29 29
32 38 42 47 53 50 46 49 51 58 46 46 32 32 32 34 39 44 50 52 46 50 57 61 57 57 58 60 63 61 73 69 62 64 63 50 41 43 38 41 35 30 31 26 24 24 21 19 25
32 35 40 42 50 48 46 43 49 63 41 40 33 37 38 33 38 45 47 51 49 46 53 62 63 59 61 64 56 54 49 53 52 52 59 53 46 49 41 38 36 35 31 36 33 36 29 27 22
34 37 35 34 18 25 13 42 39 40 15 27 39 36 43 51 44 41 40 45 48 50 53 59 65 66 65 63 56 51 48 53 53 52 54 59 57 53 54 41 38 35 37 38 36 33 31 26 25
31 37 43 46 28 28 28 50 35 39 24 39 50 60 57 62 51 43 43 45 49 55 53 58 68 69 65 59 54 52 49 52 50 61 63 62 60 57 51 46 43 50 36 34 34 31 27 28 27
32 43 44 48 28 26 34 50 47 60 68 72 68 65 58 56 50 44 41 39 45 53 52 56 65 70 65 55 56 55 58 58 66 70 69 54 63 64 55 46 50 44 38 34 33 33 28 26 28
42 47 53 50 47 48 53 60 53 59 65 63 65 60 57 54 47 39 24 29 33 46 51 55 61 71 65 66 75 74 76 71 65 69 68 65 65 67 56 56 58 42 43 37 36 34 32 27 28
42 47 53 53 41 39 49 58 52 58 66 74 66 57 55 47 41 25 15 18 29 40 45 52 58 70 72 74 78 80 73 65 77 69 63 61 63 62 57 64 57 50 37 41 40 35 29 30 32
37 44 45 50 44 43 46 60 41 18 11 20 22 26 19 25 18 14 13 10 18 33 40 50 64 71 65 72 72 78 84 79 72 67 64 66 68 65 65 64 42 30 31 35 37 38 36 35 37
45 34 33 32 30 32 21 28 32 46 45 22 18 7 12 9 7 11 10 6 11 16 35 47 56 60 60 66 74 80 76 69 70 68 70 69 66 69 68 66 55 51 53 42 34 40 46 36 38
45 35 32 34 37 41 34 24 11 7 22 21 12 12 12 10 10 9 5 5 9 31 40 47 48 51 59 60 64 61 70 68 67 65 66 64 64 60 56 55 55 51 45 52 46 35 40 33 24
30 15 28 31 26 25 36 32 19 12 18 20 15 10 9 11 9 7 6 7 13 15 28 38 43 47 51 59 59 58 63 64 65 65 64 59 53 48 42 35 23 11 20 19 36 34 32 26 28
23 24 11 18 20 19 8 15 29 14 15 14 9 7 10 11 10 10 9 7 6 9 15 25 33 39 46 52 54 53 56 57 54 54 56 48 26 11 9 6 13 15 28 30 43 50 57 52 39
31 35 15 17 22 24 8 14 5 12 15 11 4 15 14 16 17 15 15 14 13 13 14 18 23 31 37 41 44 45 40 41 38 30 27 24 23 16 9 10 35 37 41 38 41 49 56 59 55
25 31 37 37 34 30 27 40 30 20 11 11 14 17 22 23 21 20 19 18 17 18 18 18 21 23 27 30 30 30 31 30 33 37 31 31 25 19 36 39 33 24 22 19 20 25 29 36 38
35 7 23 16 14 25 30 36 26 14 12 9 16 22 26 26 25 22 21 19 19 21 24 25 25 27 35 38 42 49 54 50 50 47 44 40 38 29 30 28 26 22 18 26 29 32 35 35 38
22 31 24 20 27 26 35 34 15 17 13 14 15 19 27 32 29 26 24 22 24 26 28 29 28 29 33 41 47 47 45 45 40 36 32 30 32 32 32 29 22 20 22 23 24 24 23 26 30
35 36 39 23 36 25 35 44 27 35 38 26 24 27 32 36 36 35 32 31 32 29 26 26 27 29 28 32 38 39 39 39 39 38 38 38 37 32 28 25 24 21 21 22 23 21 22 25 27
Wind_Direction_850mb
308 325 315 274 250 227 264 94 4 24 3 3 318 310 338 322 321 25 124 182 163 170 180 175 175 171 167 166 168 170 179 182 182 181 181 181 179 177 170 161 155 152 147 139 134 128 123 119 117
283 268 277 280 254 257 95 62 51 4 353 323 284 270 266 298 7 81 115 179 170 174 176 179 178 176 174 172 171 175 185 188 187 185 186 187 187 184 174 167 163 161 155 149 143 137 136 135 130
111 246 265 233 259 329 21 68 350 344 360 333 311 256 305 12 43 51 202 166 168 176 177 182 182 182 179 178 176 179 187 189 188 188 188 191 192 187 181 174 172 168 163 161 152 149 150 143 137
255 225 241 252 274 77 328 54 20 313 115 335 339 282 223 268 343 340 183 167 168 176 177 191 186 186 185 183 182 183 185 188 185 188 190 192 192 191 186 181 178 175 173 170 164 159 153 150 146
262 261 264 236 256 54 311 19 341 332 11 312 344 317 301 97 350 304 194 170 177 176 179 195 188 189 190 189 188 187 187 188 187 189 192 193 193 194 192 188 184 184 179 177 175 170 169 168 163
257 259 263 260 151 137 163 142 257 278 320 307 304 331 300 57 22 207 172 176 177 179 182 201 190 192 194 194 194 193 191 191 193 192 193 196 197 196 195 192 191 189 181 184 187 191 192 197 203
255 280 273 287 291 197 169 187 218 316 288 333 321 290 309 110 11 165 171 171 178 181 185 201 191 193 197 198 198 198 197 196 197 196 197 198 199 200 199 198 198 199 201 203 207 214 217 216 219
279 283 271 271 271 255 142 211 229 264 308 300 279 285 346 44 33 166 177 178 179 185 188 191 191 194 197 198 199 201 202 201 201 201 201 202 201 204 205 206 209 211 215 219 222 225 230 233 232
262 257 257 268 271 314 145 223 210 266 274 267 265 282 306 283 243 200 193 191 191 190 188 190 191 195 197 198 199 202 205 205 205 205 205 204 206 204 206 208 217 222 225 230 234 232 231 235 245
238 252 263 312 330 287 227 243 279 289 261 234 257 273 265 260 246 229 215 209 204 197 192 189 191 193 194 192 202 202 204 206 206 207 206 204 195 201 204 218 217 223 230 233 237 236 234 240 266
248 248 284 296 286 287 286 283 265 278 271 274 270 278 280 273 248 248 231 222 216 210 200 194 190 193 192 192 202 197 202 202 205 207 208 194 196 203 200 221 223 220 224 227 226 227 229 218 200
257 270 264 279 280 278 271 285 280 271 272 279 281 280 272 270 267 251 241 232 220 214 208 202 195 194 192 192 201 196 204 202 203 208 207 192 199 205 202 219 208 215 219 209 205 207 204 218 208
256 263 277 279 276 268 272 272 277 273 272 276 277 275 269 264 262 253 242 238 230 217 212 207 204 197 195 186 199 193 201 202 206 208 206 188 209 209 206 218 208 205 209 212 205 208 219 219 219
279 296 281 280 277 276 272 273 272 266 267 271 268 261 264 265 264 257 248 242 232 225 213 209 208 203 196 194 213 207 211 211 211 214 209 196 209 216 207 211 204 208 207 208 208 213 207 211 210
278 277 276 270 268 262 263 268 258 266 262 258 251 265 266 266 271 261 251 243 232 228 215 211 209 206 202 199 207 201 207 202 209 219 209 211 206 222 203 207 203 204 202 204 204 212 203 200 202
265 263 274 272 250 272 233 269 282 295 246 242 256 261 286 278 264 265 251 244 239 228 220 212 213 211 210 204 205 201 207 208 210 208 222 211 206 219 216 207 203 202 208 213 214 213 210 204 190
240 262 276 285 272 238 249 269 281 292 258 260 261 269 278 281 271 256 253 249 241 230 221 212 211 212 214 207 206 206 206 212 205 208 222 220 211 212 215 204 207 216 213 206 212 207 198 196 188
273 289 297 298 300 260 263 272 283 286 287 283 279 277 276 272 270 258 256 254 247 227 220 211 216 214 213 208 206 209 206 211 212 216 220 219 211 215 218 208 208 215 207 210 204 206 197 196 190
272 280 280 282 288 283 282 283 283 284 279 277 275 274 273 269 264 253 254 257 233 219 217 210 212 221 210 210 209 207 211 217 216 221 223 217 213 222 218 213 221 201 209 211 217 211 198 190 193
267 271 270 281 280 273 279 281 288 284 270 265 270 274 265 259 250 234 259 252 224 217 215 210 211 222 222 218 218 217 214 216 229 232 232 231 229 230 226 223 228 216 203 201 212 204 187 192 186
255 264 273 280 300 294 286 281 278 269 342 283 272 276 284 260 224 216 276 276 223 221 217 217 223 228 234 223 218 217 223 227 235 236 231 226 225 225 222 218 213 217 187 201 209 198 181 193 195
263 257 269 280 289 278 312 291 288 287 288 219 232 213 231 194 207 237 260 254 224 225 220 235 237 232 233 231 229 237 238 234 230 223 219 212 214 220 220 223 214 208 197 192 174 187 187 186 197
251 267 273 275 273 285 270 261 292 177 211 208 165 190 189 187 202 221 237 228 232 221 209 224 236 236 234 239 241 244 236 234 228 221 212 209 214 216 216 214 216 217 209 205 198 189 183 183 176
254 254 264 255 260 262 249 232 285 304 35 92 111 172 226 234 225 204 191 209 244 229 214 217 228 228 230 234 242 238 243 235 228 219 213 208 209 211 212 214 220 250 229 208 177 173 184 184 176
216 202 235 223 218 240 309 253 244 145 153 120 127 195 222 228 221 204 199 193 213 210 197 205 221 229 226 228 230 237 237 232 224 215 209 201 193 183 187 210 223 261 250 236 244 224 211 200 194
204 208 226 239 247 274 360 250 268 61 110 137 241 253 216 227 217 206 198 190 180 174 177 192 203 212 219 222 226 225 223 219 212 208 183 147 153 166 248 187 225 200 213 217 214 215 217 217 223
196 210 241 273 285 285 267 272 265 157 182 184 187 207 220 223 215 206 201 186 175 168 168 170 180 191 198 197 200 202 201 187 173 167 171 183 198 179 212 213 213 199 185 213 218 223 222 218 223
247 229 217 220 253 244 260 267 271 226 190 193 234 222 216 208 205 201 202 194 181 169 158 153 152 159 164 166 164 170 169 174 176 180 182 182 191 178 191 200 192 192 200 216 216 224 223 227 235
197 235 241 288 233 254 270 267 303 51 18 330 243 240 235 210 210 203 200 190 179 162 158 155 154 156 165 170 172 174 177 179 182 181 179 177 174 173 180 188 188 188 185 206 206 213 219 224 226
239 247 222 220 236 239 250 266 277 295 309 307 280 265 237 228 212 205 197 191 184 178 176 174 170 170 174 170 181 182 184 182 180 180 178 177 180 181 185 187 180 179 189 197 208 217 221 221 224